Augusta, Maine, United States (04330)
Lat: 44.31N, Lon: 69.78W
Wx Zone: MEZ021
Local Info
Past Weather Observations for Thursday, February 4, 2016

NOTE: This archive is for the closest National Weather Service station to Augusta. Information may differ from the station used for current weather conditions.

Click here for Long-term Archive

Time Weather Temperature Dewpoint Humidity Pressure Winds Precip Visibility
23:53
Overcast
37°F / 3°C 27°F / -3°C 65% 30.06 in
(1018 mb)
N 8.1 mph
(N 13 kph)
- 10SM
22:53
Overcast
37°F / 3°C 28°F / -2°C 70% 30.06 in
(1018 mb)
N 6.9 mph
(N 11 kph)
- 10SM
21:53
Mostly Cloudy
37°F / 3°C 28°F / -2°C 70% 30.06 in
(1018 mb)
N 5.8 mph
(N 9 kph)
- 10SM
20:53
Overcast
39°F / 4°C 28°F / -2°C 65% 30.06 in
(1018 mb)
N 5.8 mph
(N 9 kph)
- 10SM
19:53
Overcast
39°F / 4°C 28°F / -2°C 65% 30.06 in
(1018 mb)
N 5.8 mph
(N 9 kph)
- 10SM
18:53
Overcast
41°F / 5°C 28°F / -2°C 61% 30.04 in
(1017 mb)
NNW 4.6 mph
(NNW 7 kph)
- 10SM
17:53
Overcast
43°F / 6°C 28°F / -2°C 57% 30.04 in
(1017 mb)
NNW 9.2 mph
(NNW 15 kph)
- 10SM
16:53
Overcast
45°F / 7°C 30°F / -1°C 57% 29.98 in
(1015 mb)
N 5.8 mph
(N 9 kph)
- 10SM
15:53
Overcast
46°F / 8°C 30°F / -1°C 53% 29.98 in
(1015 mb)
NW 6.9 mph
(NW 11 kph)
- 10SM
14:53
Overcast
48°F / 9°C 39°F / 4°C 71% 29.92 in
(1013 mb)
N 5.8 mph
(N 9 kph)
- 10SM
14:39
Mostly Cloudy
48°F / 9°C 39°F / 4°C 71% 29.92 in
(1013 mb)
N 6.9 mph
(N 11 kph)
- 10SM
14:31
Mostly Cloudy
50°F / 10°C 39°F / 4°C 67% 29.92 in
(1013 mb)
N 9.2 mph
(N 15 kph)
- 10SM
13:53
Clear
52°F / 11°C 41°F / 5°C 67% 29.92 in
(1013 mb)
NW 8.1 mph
(NW 13 kph)
- 10SM
12:53
Clear
52°F / 11°C 46°F / 8°C 82% 29.89 in
(1012 mb)
N 3.5 mph
(N 6 kph)
- 10SM
11:53
Clear
50°F / 10°C 45°F / 7°C 82% 29.89 in
(1012 mb)
Variable 3.5 mph
(Variable 6 kph)
- 10SM
10:53
Overcast
Fog And Mist
46°F / 8°C 46°F / 8°C 100% 29.89 in
(1012 mb)
SSE 4.6 mph
(SSE 7 kph)
- 6SM
10:42
Overcast
Fog And Mist
46°F / 8°C 45°F / 7°C 93% 29.89 in
(1012 mb)
SSE 5.8 mph
(SSE 9 kph)
- 4SM
10:30
Overcast
Fog And Mist
45°F / 7°C 45°F / 7°C 100% 29.89 in
(1012 mb)
SSE 4.6 mph
(SSE 7 kph)
- 2 1/2SM
10:17
Overcast
Fog And Mist
45°F / 7°C 43°F / 6°C 93% 29.92 in
(1013 mb)
SSE 3.5 mph
(SSE 6 kph)
- 3SM
10:02
Overcast
Fog And Mist
45°F / 7°C 45°F / 7°C 100% 29.92 in
(1013 mb)
Calm - 1SM
09:53
Overcast
Fog And Mist
45°F / 7°C 45°F / 7°C 100% 29.92 in
(1013 mb)
Calm 0.00 in
(0.00 mm)
2 1/2SM
09:32
Overcast
Fog And Mist
45°F / 7°C 45°F / 7°C 100% 29.89 in
(1012 mb)
Calm 0.00 in
(0.00 mm)
4SM
08:53
Overcast
Fog And Mist
45°F / 7°C 45°F / 7°C 100% 29.89 in
(1012 mb)
NW 5.8 mph
(NW 9 kph)
- 5SM
08:46
Overcast
Fog And Mist
45°F / 7°C 45°F / 7°C 100% 29.89 in
(1012 mb)
NNW 4.6 mph
(NNW 7 kph)
- 3SM
08:40
Overcast
Fog And Mist
45°F / 7°C 45°F / 7°C 100% 29.89 in
(1012 mb)
NW 6.9 mph
(NW 11 kph)
- 1SM
08:27
Overcast
Fog
45°F / 7°C 43°F / 6°C 93% 29.89 in
(1012 mb)
NW 5.8 mph
(NW 9 kph)
- 1/4SM
08:13
Overcast
Fog
45°F / 7°C 43°F / 6°C 93% 29.89 in
(1012 mb)
NW 5.8 mph
(NW 9 kph)
- M1/4SM
07:53
Obscured
Fog
43°F / 6°C 43°F / 6°C 100% 29.89 in
(1012 mb)
NNW 8.1 mph
(NNW 13 kph)
- M1/4SM
06:53
Obscured
Fog
46°F / 8°C 46°F / 8°C 100% 29.83 in
(1010 mb)
SW 3.5 mph
(SW 6 kph)
- 1/4SM
06:41
Obscured
Fog
48°F / 9°C 46°F / 8°C 94% 29.83 in
(1010 mb)
SW 5.8 mph
(SW 9 kph)
- 1/4SM
06:25
Overcast
Fog And Mist
48°F / 9°C 46°F / 8°C 94% 29.83 in
(1010 mb)
SW 5.8 mph
(SW 9 kph)
- 1 1/2SM
06:16
Overcast
Fog And Mist
48°F / 9°C 46°F / 8°C 94% 29.83 in
(1010 mb)
SW 5.8 mph
(SW 9 kph)
- 2SM
06:11
Obscured
Fog And Mist
48°F / 9°C 46°F / 8°C 94% 29.83 in
(1010 mb)
SW 6.9 mph
(SW 11 kph)
- 3/4SM
05:53
Obscured
Fog
46°F / 8°C 46°F / 8°C 100% 29.83 in
(1010 mb)
SW 8.1 mph
(SW 13 kph)
- 1/4SM
05:29
Obscured
Fog
48°F / 9°C 46°F / 8°C 94% 29.8 in
(1009 mb)
SSE 8.1 mph
(SSE 13 kph)
- 1/4SM
05:20
Obscured
Fog
48°F / 9°C 46°F / 8°C 94% 29.8 in
(1009 mb)
SSE 6.9 mph
(SSE 11 kph)
- 1/2SM
04:53
Overcast
Fog And Mist
48°F / 9°C 46°F / 8°C 94% 29.8 in
(1009 mb)
S 9.2 mph
(S 15 kph)
- 1 1/4SM
04:49
Overcast
Fog And Mist
48°F / 9°C 48°F / 9°C 100% 29.8 in
(1009 mb)
SSE 6.9 mph
(SSE 11 kph)
- 1 1/4SM
04:41
Overcast
Fog And Mist
48°F / 9°C 48°F / 9°C 100% 29.8 in
(1009 mb)
SSE 6.9 mph
(SSE 11 kph)
- 2SM
04:29
Overcast
Fog And Mist
48°F / 9°C 48°F / 9°C 100% 29.8 in
(1009 mb)
SSE 8.1 mph
(SSE 13 kph)
- 3SM
04:19
Overcast
Fog And Mist
48°F / 9°C 48°F / 9°C 100% 29.8 in
(1009 mb)
SW 9.2 mph
(SW 15 kph)
- 2SM
03:53
Obscured
Fog And Mist
48°F / 9°C 48°F / 9°C 100% 29.8 in
(1009 mb)
SW 8.1 mph
(SW 13 kph)
- 3/4SM
03:19
Overcast
Fog And Mist
48°F / 9°C 48°F / 9°C 100% 29.8 in
(1009 mb)
SSE 8.1 mph
(SSE 13 kph)
- 1 1/2SM
02:53
Obscured
Fog And Mist
48°F / 9°C 48°F / 9°C 100% 29.8 in
(1009 mb)
SSE 6.9 mph
(SSE 11 kph)
- 3/4SM
02:50
Overcast
Fog And Mist
48°F / 9°C 48°F / 9°C 100% 29.8 in
(1009 mb)
SW 8.1 mph
(SW 13 kph)
- 3/4SM
02:14
Overcast
Fog And Mist
48°F / 9°C 48°F / 9°C 100% 29.8 in
(1009 mb)
SSE 8.1 mph
(SSE 13 kph)
- 1 1/4SM
01:53
Overcast
Fog And Mist
48°F / 9°C 48°F / 9°C 100% 29.8 in
(1009 mb)
S 6.9 mph
(S 11 kph)
- 2 1/2SM
01:10
Overcast
Fog And Mist
48°F / 9°C 48°F / 9°C 100% 29.8 in
(1009 mb)
SSE 6.9 mph
(SSE 11 kph)
- 2SM
01:02
Overcast
Fog And Mist
48°F / 9°C 48°F / 9°C 100% 29.8 in
(1009 mb)
S 6.9 mph
(S 11 kph)
- 1 1/2SM
00:53
Obscured
Fog And Mist
48°F / 9°C 46°F / 8°C 94% 29.8 in
(1009 mb)
S 6.9 mph
(S 11 kph)
- 3/4SM
Time Weather Temperature Dewpoint Humidity Pressure Winds Precip Visibility


Weather for websites

WeatherForYou.com, LLC is not responsible for any damages or problems caused by this service. Current weather conditions are obtained from the closest station including government and personal stations which may have varying degrees of accuracy. Weather forecasts are derived from the NOAA NDFD. Like all things, this site belongs to Jesus Christ... He just trusts us to maintain it. If you have any questions or comments email webmaster@weatherforyou.com

Copyright © 2016, WeatherForYou.com LLC. All rights reserved.